Flag for Ukraine Weather past 2 weeks in Luhansk, Ukraine

Now
34 °F

Mostly cloudy.


Feels Like: 23 °F
Forecast: 25 / 32 °F
Wind: 17 mph from Northeast

Location: Rostov-Na-Donu

Current Time: Oct 23, 2014 at 11:47:21 PM

Latest Report: Oct 23, 2014 at 11:00 PM


Visibility: N/A

Pressure: 30.15 "Hg

Humidity: 75%

Dew point: 27 °F

Location of LuhanskLocation

Historic Weather in Luhansk — Graph

°F

Luhansk temperature yesterday

Maximum temperature yesterday: 57 °F (at 2:30 PM)
Minimum temperature yesterday: 50 °F (at 5:30 PM)
Average temperature yesterday: 53 °F

Past Weeks' High & Low Weather Summary

 TemperatureHumidityPressure
High73 °F (Oct 15, 2:30 PM)100% (Oct 13, 8:30 AM)30.39 "Hg (Oct 13, 8:30 AM)
Low27 °F (Oct 20, 2:30 AM)35% (Oct 11, 1:30 PM)29.62 "Hg (Oct 17, 6:30 AM)
Average51 °F78%30.02 "Hg
* Reported Oct 8 10:00 PM — Oct 23 10:30 PM, Luhansk, Weather by CustomWeather, © 2014

Note: Actual official high and low records may vary slightly from our data, if they occured in-between our weather recording intervals... More about our weather records

Advertising

Luhansk weather history for previous 24 hours

 ConditionsComfort  
Time TempWeatherWind HumidityBarometerVisibility
10:30 PM
Oct 23
34 °FMostly cloudy.20 mph75%30.12 "HgN/A
10:00 PM34 °FMostly cloudy.17 mph81%30.12 "HgN/A
9:30 PM34 °FMostly cloudy.20 mph81%30.12 "HgN/A
9:00 PM34 °FMostly cloudy.22 mph75%30.12 "HgN/A
8:30 PM34 °FMostly cloudy.22 mph81%30.12 "HgN/A
8:00 PM34 °FMostly cloudy.20 mph81%30.09 "HgN/A
7:30 PM34 °FMostly cloudy.22 mph81%30.09 "HgN/A
7:00 PM36 °FMostly cloudy.17 mph81%30.09 "HgN/A
6:30 PM36 °FOvercast.20 mph81%30.09 "HgN/A
6:00 PM36 °FOvercast.17 mph81%30.09 "HgN/A
5:30 PM36 °FOvercast.15 mph87%30.07 "HgN/A
5:00 PM36 °FOvercast.15 mph87%30.07 "HgN/A
4:30 PM37 °FMostly cloudy.20 mph81%30.07 "HgN/A
4:00 PM37 °FMostly cloudy.20 mph81%30.04 "HgN/A
3:30 PM37 °FMostly cloudy.17 mph81%30.04 "HgN/A
3:00 PM39 °FMostly cloudy.17 mph81%30.04 "HgN/A
2:30 PM39 °FMostly cloudy.20 mph81%30.04 "HgN/A
2:00 PM39 °FOvercast.20 mph81%30.04 "HgN/A
1:30 PM39 °FOvercast.20 mph81%30.04 "HgN/A
1:00 PM39 °FOvercast.17 mph87%30.04 "HgN/A
12:30 PM39 °FOvercast.17 mph87%30.04 "Hg5 mi
12:00 PM41 °FLow clouds.17 mph87%30.04 "Hg4 mi
11:30 AM41 °FLow clouds.20 mph93%30.01 "Hg4 mi
11:00 AM43 °FLow clouds.17 mph87%30.01 "Hg4 mi
10:30 AM43 °FFog.17 mph93%30.01 "Hg3 mi
10:00 AM43 °FFog.17 mph100%30.01 "Hg2 mi
9:30 AM45 °FFog.15 mph93%29.98 "Hg1 mi
9:00 AM45 °FFog.15 mph93%29.98 "Hg1 mi
8:30 AM45 °FFog.13 mph100%29.98 "Hg1 mi
8:00 AM45 °FFog.15 mph100%29.95 "Hg1 mi
7:30 AM45 °FFog.13 mph100%29.95 "Hg1 mi
7:00 AM46 °FFog.13 mph93%29.95 "Hg1 mi
6:30 AM46 °FFog.13 mph100%29.92 "Hg1 mi
5:30 AM48 °FFog.10 mph94%29.92 "Hg1 mi
5:00 AM48 °FFog.10 mph100%29.92 "Hg1 mi
4:30 AM48 °FFog.8 mph100%29.92 "Hg1 mi
4:00 AM50 °FFog.6 mph94%29.89 "Hg1 mi
3:30 AM50 °FFog.6 mph94%29.89 "Hg1 mi
3:00 AM52 °FFog.6 mph94%29.89 "Hg2 mi
2:30 AM52 °FFog.1 mph94%29.89 "Hg2 mi
2:00 AM52 °FFog.3 mph94%29.89 "Hg2 mi
1:30 AM50 °FFog.1 mph100%29.89 "Hg2 mi
1:00 AM50 °FFog.1 mph100%29.89 "Hg1 mi
12:30 AM50 °FFog.1 mph100%29.89 "Hg1 mi
12:00 AM52 °FFog.1 mph94%29.89 "Hg1 mi
11:30 PM
Oct 22
52 °FFog.1 mph94%29.89 "Hg2 mi
11:00 PM52 °FFog.No wind94%29.89 "Hg2 mi
Weather by CustomWeather, © 2014

See weather overviewHow to use our weather pages